Weather History for Oskaloosa, IA

Change the Weather History Date:

Monday, May 13, 2013

  Actual Average (KOTM) Record (KOTM)
Temperature  
Mean Temperature 56 °F 60 °F  
Max Temperature 74 °F 71 °F 92 °F (1940)
Min Temperature 39 °F 50 °F 31 °F (1938)
Degree Days  
Heating Degree Days 8 6  
Month to date heating degree days 96  
Since 1 July heating degree days 6226  
Cooling Degree Days 0 1  
Month to date cooling degree days 13  
Year to date cooling degree days 24  
Growing Degree Days 6 (Base 50)    
Moisture  
Dew Point 35 °F    
Average Humidity 47    
Maximum Humidity 69    
Minimum Humidity 25    
Precipitation  
Precipitation 0.00 in 0.16 in 1.65 in (1908)
Month to date precipitation 1.90  
Year to date precipitation 9.72  
Sea Level Pressure  
Sea Level Pressure 30.07 in    
Wind  
Wind Speed 5 mph (South)    
Max Wind Speed 21 mph    
Max Gust Speed 24 mph    
Visibility 10 miles    
Events      
T = Trace of Precipitation, MM = Missing Value Source: NWS Daily Summary

Daily Weather History Graph

Daily Weather History Graph

Search for Another Location

Airport:

Trip Planner

Search our weather history database for the weather conditions in past years. The results will help you decide how hot, cold, wet, or windy it might be!

Date:

Astronomy

May. 13, 2013 Rise Set
Actual Time 5:53 AM CDT 8:19 PM CDT
Civil Twilight 5:22 AM CDT 8:51 PM CDT
Nautical Twilight 4:43 AM CDT 9:30 PM CDT
Astronomical Twilight 4:00 AM CDT 10:13 PM CDT
Moon 8:39 AM CDT (5/13) 11:29 PM CDT (5/13)
Length of Visible Light 15h 29m
Length of Day
14h 26m
Waxing Crescent, 12% of the Moon is Illuminated
May 13
Waxing Crescent
May 17
First Quarter
May 24
Full
May 31
Last Quarter
Jun 8
New

Hourly Weather History & Observations

Time (CDT) Temp. Windchill Dew Point Humidity Pressure Visibility Wind Dir Wind Speed Gust Speed Precip Events Conditions
12:15 AM 43.3 °F - 29.5 °F 58% 30.14 in 10.0 mi Calm Calm - N/A   Clear
12:35 AM 43.0 °F - 29.5 °F 59% 30.14 in 10.0 mi Calm Calm - N/A   Clear
12:55 AM 43.2 °F - 28.9 °F 57% 30.15 in 10.0 mi Calm Calm - N/A   Clear
1:15 AM 42.8 °F - 28.8 °F 58% 30.15 in 10.0 mi Calm Calm - N/A   Clear
1:35 AM 42.4 °F - 28.8 °F 58% 30.15 in 10.0 mi Calm Calm - N/A   Clear
1:55 AM 42.8 °F - 28.4 °F 57% 30.14 in 10.0 mi Calm Calm - N/A   Clear
2:15 AM 42.1 °F - 28.4 °F 58% 30.14 in 10.0 mi Calm Calm - N/A   Clear
2:35 AM 40.8 °F - 29.1 °F 63% 30.14 in 10.0 mi Calm Calm - N/A   Clear
2:55 AM 40.1 °F - 29.3 °F 65% 30.13 in 10.0 mi Calm Calm - N/A   Clear
3:15 AM 40.1 °F - 29.3 °F 65% 30.14 in 10.0 mi Calm Calm - N/A   Clear
3:35 AM 40.1 °F - 29.7 °F 66% 30.14 in 10.0 mi Calm Calm - N/A   Clear
3:55 AM 40.1 °F - 29.7 °F 66% 30.13 in 10.0 mi Calm Calm - N/A   Clear
4:15 AM 39.7 °F 36.5 °F 29.8 °F 68% 30.13 in 10.0 mi WSW 4.6 mph - N/A   Clear
4:35 AM 39.9 °F - 30.0 °F 68% 30.13 in 10.0 mi Calm Calm - N/A   Clear
4:55 AM 40.1 °F - 30.0 °F 67% 30.13 in 10.0 mi Calm Calm - N/A   Clear
5:15 AM 40.5 °F - 29.8 °F 66% 30.13 in 10.0 mi Calm Calm - N/A   Clear
5:35 AM 40.1 °F - 29.7 °F 66% 30.14 in 10.0 mi Calm Calm - N/A   Clear
5:55 AM 39.7 °F - 29.7 °F 67% 30.14 in 10.0 mi Calm Calm - N/A   Clear
6:15 AM 40.5 °F - 29.8 °F 66% 30.14 in 10.0 mi Calm Calm - N/A   Clear
6:35 AM 40.1 °F - 29.3 °F 65% 30.15 in 10.0 mi Calm Calm - N/A   Clear
6:55 AM 41.0 °F - 31.5 °F 69% 30.15 in 10.0 mi Calm Calm - N/A   Clear
7:15 AM 43.2 °F - 32.0 °F 65% 30.15 in 10.0 mi Calm Calm - N/A   Clear
7:35 AM 45.9 °F - 32.5 °F 60% 30.16 in 10.0 mi Calm Calm - N/A   Clear
7:55 AM 49.3 °F - 32.9 °F 53% 30.17 in 10.0 mi Calm Calm - N/A   Clear
8:15 AM 52.3 °F - 32.5 °F 47% 30.17 in 10.0 mi SW 6.9 mph - N/A   Clear
8:35 AM 54.5 °F - 32.0 °F 42% 30.17 in 10.0 mi SW 9.2 mph - N/A   Clear
8:55 AM 56.3 °F - 32.2 °F 40% 30.17 in 10.0 mi SW 10.4 mph - N/A   Clear
9:15 AM 57.6 °F - 30.6 °F 36% 30.17 in 10.0 mi SW 11.5 mph - N/A   Clear
9:35 AM 59.2 °F - 31.3 °F 35% 30.17 in 10.0 mi SW 11.5 mph - N/A   Clear
9:55 AM 60.4 °F - 30.4 °F 32% 30.15 in 10.0 mi SW 10.4 mph - N/A   Clear
10:15 AM 61.9 °F - 29.1 °F 29% 30.15 in 10.0 mi SSW 9.2 mph - N/A   Clear
10:35 AM 63.1 °F - 29.8 °F 29% 30.14 in 10.0 mi South 9.2 mph - N/A   Clear
10:55 AM 63.7 °F - 29.3 °F 27% 30.14 in 10.0 mi South 5.8 mph - N/A   Clear
11:15 AM 64.6 °F - 29.1 °F 26% 30.14 in 10.0 mi SSW 9.2 mph - N/A   Clear
11:35 AM 65.5 °F - 30.4 °F 27% 30.13 in 10.0 mi South 4.6 mph - N/A   Clear
11:55 AM 66.9 °F - 31.6 °F 27% 30.12 in 10.0 mi SSW 11.5 mph - N/A   Clear
12:15 PM 67.1 °F - 32.0 °F 27% 30.11 in 10.0 mi South 5.8 mph 16.1 mph N/A   Clear
12:35 PM 68.0 °F - 32.9 °F 27% 30.11 in 10.0 mi SSE 6.9 mph - N/A   Clear
12:55 PM 68.9 °F - 33.8 °F 27% 30.10 in 10.0 mi SSW 8.1 mph 16.1 mph N/A   Clear
1:15 PM 69.6 °F - 34.9 °F 28% 30.09 in 10.0 mi South 10.4 mph - N/A   Clear
1:35 PM 70.7 °F - 35.4 °F 27% 30.08 in 10.0 mi SSW 11.5 mph 18.4 mph N/A   Clear
1:55 PM 70.9 °F - 35.4 °F 27% 30.07 in 10.0 mi South 10.4 mph 18.4 mph N/A   Clear
2:15 PM 71.8 °F - 36.5 °F 28% 30.06 in 10.0 mi South 12.7 mph 23.0 mph N/A   Clear
2:35 PM 72.3 °F - 36.5 °F 27% 30.05 in 10.0 mi South 11.5 mph 20.7 mph N/A   Clear
3:35 PM 73.6 °F - 38.3 °F 28% 30.03 in 10.0 mi South 18.4 mph 21.9 mph N/A   Clear
3:55 PM 73.2 °F - 38.5 °F 28% 30.02 in 10.0 mi South 17.3 mph 21.9 mph N/A   Clear
4:15 PM 73.6 °F - 38.3 °F 28% 30.00 in 10.0 mi South 18.4 mph - N/A   Scattered Clouds
4:35 PM 73.6 °F - 39.0 °F 29% 29.99 in 10.0 mi SSW 17.3 mph 23.0 mph N/A   Clear
4:55 PM 74.1 °F - 39.4 °F 28% 29.98 in 10.0 mi South 20.7 mph 24.2 mph N/A   Clear
5:15 PM 73.8 °F - 36.9 °F 26% 29.97 in 10.0 mi SSW 17.3 mph - N/A   Clear
5:35 PM 73.9 °F - 36.0 °F 25% 29.97 in 10.0 mi SSW 17.3 mph - N/A   Clear
5:55 PM 73.4 °F - 37.2 °F 27% 29.96 in 10.0 mi SSW 19.6 mph 23.0 mph N/A   Clear
6:35 PM 73.2 °F - 35.6 °F 25% 29.95 in 10.0 mi South 18.4 mph - N/A   Clear
7:15 PM 70.7 °F - 38.7 °F 31% 29.94 in 10.0 mi SSW 13.8 mph - N/A   Clear
7:35 PM 69.4 °F - 41.0 °F 36% 29.94 in 10.0 mi South 10.4 mph - N/A   Clear
7:55 PM 68.5 °F - 41.9 °F 38% 29.93 in 10.0 mi South 10.4 mph - N/A   Clear
8:15 PM 66.4 °F - 42.8 °F 42% 29.94 in 10.0 mi South 9.2 mph - N/A   Clear
8:35 PM 62.8 °F - 44.1 °F 50% 29.95 in 10.0 mi South 4.6 mph - N/A   Clear
8:55 PM 61.5 °F - 44.2 °F 53% 29.94 in 10.0 mi SSE 9.2 mph - N/A   Clear
9:15 PM 60.8 °F - 44.6 °F 55% 29.94 in 10.0 mi SSE 10.4 mph - N/A   Clear
9:35 PM 59.5 °F - 44.8 °F 58% 29.94 in 10.0 mi SSE 9.2 mph - N/A   Clear
9:55 PM 59.0 °F - 44.8 °F 59% 29.94 in 10.0 mi SSE 9.2 mph - N/A   Clear
10:15 PM 59.4 °F - 45.3 °F 60% 29.93 in 10.0 mi South 10.4 mph - N/A   Clear
10:35 PM 59.0 °F - 45.5 °F 61% 29.92 in 10.0 mi South 9.2 mph - N/A   Clear
10:55 PM 58.5 °F - 45.5 °F 62% 29.92 in 10.0 mi South 11.5 mph - N/A   Clear
11:15 PM 58.5 °F - 45.5 °F 62% 29.91 in 10.0 mi South 10.4 mph - N/A   Clear
11:35 PM 57.9 °F - 45.5 °F 63% 29.90 in 10.0 mi South 8.1 mph - N/A   Clear
11:55 PM 58.1 °F - 45.5 °F 63% 29.90 in 10.0 mi South 10.4 mph - N/A   Clear